When you browse on this site, cookies collect data to enhance your experience and personalize the content and advertising you see.
Visit our Privacy Policy to learn more. By continuing to use the site, you agree to this use of cookies and data.
  • In Italy
  • List of Countries
  • For 7 days
  • Water Temperature
  • Satellite Maps
  • Weather Map
  • Weather Widgets
  • user-avatar
    Login

    Hourly Weather Baalbek

    Today, 10 December, Monday

    Time Temperature Precipitation Wind Pressure Humidity
    00:00 +7°C° 0 mm 1 mps 660 mmHg 83%
    01:00 +7°C° 0 mm 1 mps 660 mmHg 83%
    02:00 +6°C° 0 mm 2 mps 660 mmHg 82%
    03:00 +6°C° 0 mm 2 mps 660 mmHg 83%
    04:00 +6°C° 0 mm 2 mps 660 mmHg 83%
    05:00 +6°C° 0 mm 2 mps 660 mmHg 83%
    06:00 +6°C° 0 mm 2 mps 660 mmHg 80%
    07:00 +7°C° 0 mm 3 mps 660 mmHg 76%
    08:00 +8°C° 0 mm 3 mps 660 mmHg 75%
    09:00 +8°C° 0 mm 4 mps 660 mmHg 71%
    10:00 +10°C° 0 mm 4 mps 660 mmHg 67%
    11:00 +10°C° 0 mm 5 mps 661 mmHg 63%
    12:00 +10°C° 0 mm 5 mps 660 mmHg 63%
    13:00 +10°C° 0 mm 5 mps 660 mmHg 63%
    14:00 +10°C° 0 mm 5 mps 660 mmHg 63%
    15:00 +10°C° 0 mm 5 mps 660 mmHg 67%
    16:00 +10°C° 0 mm 4 mps 660 mmHg 71%
    17:00 +8°C° 0 mm 4 mps 660 mmHg 74%
    18:00 +8°C° 0 mm 4 mps 660 mmHg 76%
    19:00 +8°C° 0 mm 4 mps 660 mmHg 78%
    20:00 +8°C° 0 mm 3 mps 660 mmHg 79%
    21:00 +7°C° 0 mm 4 mps 660 mmHg 80%
    22:00 +7°C° 0 mm 4 mps 660 mmHg 80%
    23:00 +7°C° 0 mm 4 mps 660 mmHg 81%

    Tomorrow, 11 December, Tuesday

    Time Temperature Precipitation Wind Pressure Humidity
    00:00 +7°C° 0 mm 4 mps 659 mmHg 82%
    01:00 +7°C° 0 mm 4 mps 659 mmHg 82%
    02:00 +7°C° 0 mm 5 mps 659 mmHg 83%
    03:00 +7°C° 0 mm 5 mps 659 mmHg 82%
    04:00 +7°C° 0 mm 5 mps 659 mmHg 82%
    05:00 +6°C° 0 mm 5 mps 659 mmHg 81%
    06:00 +7°C° 0 mm 6 mps 659 mmHg 80%
    07:00 +7°C° 0 mm 6 mps 659 mmHg 78%
    08:00 +8°C° 0 mm 6 mps 659 mmHg 77%
    09:00 +9°C° 0 mm 7 mps 659 mmHg 72%
    10:00 +10°C° 0 mm 7 mps 660 mmHg 67%
    11:00 +11°C° 0 mm 8 mps 660 mmHg 62%
    12:00 +11°C° 0.3 mm 8 mps 660 mmHg 65%
    13:00 +10°C° 0.3 mm 8 mps 660 mmHg 69%
    14:00 +10°C° 0.3 mm 8 mps 659 mmHg 72%
    15:00 +10°C° 0.6 mm 7 mps 659 mmHg 76%
    16:00 +9°C° 0.6 mm 6 mps 659 mmHg 80%
    17:00 +9°C° 0.6 mm 6 mps 659 mmHg 85%
    18:00 +9°C° 0.5 mm 5 mps 660 mmHg 86%
    19:00 +9°C° 0.5 mm 5 mps 660 mmHg 87%
    20:00 +9°C° 0.5 mm 5 mps 660 mmHg 88%
    21:00 +9°C° 0.3 mm 5 mps 660 mmHg 88%
    22:00 +9°C° 0.3 mm 5 mps 660 mmHg 88%
    23:00 +8°C° 0.3 mm 5 mps 660 mmHg 88%

    Day after tomorrow, 12 December, Wednesday

    Time Temperature Precipitation Wind Pressure Humidity
    00:00 +8°C° 0.2 mm 6 mps 660 mmHg 88%
    01:00 +8°C° 0.2 mm 6 mps 659 mmHg 87%
    02:00 +8°C° 0.2 mm 6 mps 659 mmHg 87%
    03:00 +8°C° 0.2 mm 6 mps 659 mmHg 87%
    04:00 +8°C° 0.2 mm 6 mps 659 mmHg 87%
    05:00 +8°C° 0.2 mm 6 mps 658 mmHg 87%
    06:00 +8°C° 0.2 mm 7 mps 659 mmHg 85%
    07:00 +8°C° 0.2 mm 7 mps 659 mmHg 84%
    08:00 +9°C° 0.2 mm 7 mps 659 mmHg 82%
    09:00 +9°C° 0.4 mm 8 mps 659 mmHg 81%
    10:00 +9°C° 0.4 mm 8 mps 659 mmHg 79%
    11:00 +10°C° 0.4 mm 9 mps 659 mmHg 78%
    12:00 +10°C° 0.6 mm 9 mps 659 mmHg 79%
    13:00 +10°C° 0.6 mm 9 mps 659 mmHg 80%
    14:00 +8°C° 0.6 mm 9 mps 659 mmHg 80%
    15:00 +9°C° 0.6 mm 8 mps 659 mmHg 81%
    16:00 +9°C° 0.6 mm 7 mps 659 mmHg 82%
    17:00 +8°C° 0.6 mm 7 mps 659 mmHg 83%
    18:00 +8°C° 0.1 mm 7 mps 659 mmHg 83%
    19:00 +7°C° 0.1 mm 6 mps 659 mmHg 82%
    20:00 +7°C° 0.1 mm 6 mps 660 mmHg 82%
    21:00 +5°C° 0 mm 6 mps 660 mmHg 82%
    22:00 +6°C° 0 mm 5 mps 660 mmHg 82%
    23:00 +5°C° 0 mm 5 mps 660 mmHg 81%

    13 December, Thursday

    Time Temperature Precipitation Wind Pressure Humidity
    00:00 +5°C° 0 mm 4 mps 660 mmHg 82%
    01:00 +5°C° 0 mm 4 mps 660 mmHg 82%
    02:00 +5°C° 0 mm 4 mps 660 mmHg 82%
    03:00 +5°C° 0.1 mm 3 mps 660 mmHg 83%
    04:00 +4°C° 0.1 mm 3 mps 661 mmHg 83%
    05:00 +4°C° 0.1 mm 3 mps 661 mmHg 83%
    06:00 +5°C° 0.1 mm 3 mps 661 mmHg 82%
    07:00 +5°C° 0.1 mm 3 mps 662 mmHg 81%
    08:00 +5°C° 0.1 mm 3 mps 662 mmHg 79%
    09:00 +7°C° 0.1 mm 3 mps 662 mmHg 76%
    10:00 +7°C° 0.1 mm 3 mps 663 mmHg 73%
    11:00 +8°C° 0.1 mm 3 mps 663 mmHg 69%
    12:00 +8°C° 0.1 mm 3 mps 663 mmHg 69%
    13:00 +8°C° 0.1 mm 3 mps 663 mmHg 68%
    14:00 +8°C° 0.1 mm 3 mps 663 mmHg 67%
    15:00 +8°C° 0.1 mm 3 mps 663 mmHg 70%
    16:00 +8°C° 0.1 mm 2 mps 663 mmHg 73%
    17:00 +7°C° 0.1 mm 2 mps 663 mmHg 75%
    18:00 +7°C° 0 mm 2 mps 663 mmHg 78%
    19:00 +7°C° 0 mm 1 mps 663 mmHg 81%
    20:00 +7°C° 0 mm 1 mps 663 mmHg 83%
    21:00 +7°C° 0 mm 1 mps 663 mmHg 84%
    22:00 +6°C° 0 mm 1 mps 663 mmHg 84%
    23:00 +6°C° 0 mm 1 mps 663 mmHg 84%

    14 December, Friday

    Time Temperature Precipitation Wind Pressure Humidity
    00:00 +6°C° 0 mm 1 mps 663 mmHg 85%
    01:00 +6°C° 0 mm 1 mps 663 mmHg 85%
    02:00 +5°C° 0 mm 1 mps 663 mmHg 85%
    03:00 +5°C° 0 mm 1 mps 663 mmHg 86%
    04:00 +5°C° 0 mm 1 mps 663 mmHg 86%
    05:00 +5°C° 0 mm 1 mps 663 mmHg 86%
    06:00 +6°C° 0 mm 1 mps 663 mmHg 82%
    07:00 +7°C° 0 mm 1 mps 664 mmHg 78%
    08:00 +8°C° 0 mm 1 mps 664 mmHg 74%
    09:00 +9°C° 0 mm 1 mps 665 mmHg 67%
    10:00 +10°C° 0 mm 1 mps 665 mmHg 61%
    11:00 +11°C° 0 mm 1 mps 665 mmHg 54%
    12:00 +11°C° 0 mm 1 mps 665 mmHg 53%
    13:00 +12°C° 0 mm 1 mps 665 mmHg 51%
    14:00 +12°C° 0 mm 1 mps 665 mmHg 50%
    15:00 +11°C° 0 mm 1 mps 664 mmHg 56%
    16:00 +10°C° 0 mm 1 mps 664 mmHg 63%
    17:00 +9°C° 0 mm 1 mps 664 mmHg 69%
    18:00 +9°C° 0 mm 1 mps 664 mmHg 71%
    19:00 +8°C° 0 mm 1 mps 664 mmHg 72%
    20:00 +8°C° 0 mm 1 mps 664 mmHg 74%
    21:00 +8°C° 0 mm 1 mps 664 mmHg 73%
    22:00 +8°C° 0 mm 1 mps 664 mmHg 73%
    23:00 +7°C° 0 mm 1 mps 664 mmHg 72%

    15 December, Saturday

    Time Temperature Precipitation Wind Pressure Humidity
    00:00 +7°C° 0 mm 1 mps 664 mmHg 71%
    01:00 +7°C° 0 mm 1 mps 663 mmHg 70%
    02:00 +7°C° 0 mm 1 mps 663 mmHg 69%
    03:00 +7°C° 0 mm 1 mps 663 mmHg 69%
    04:00 +6°C° 0 mm 1 mps 663 mmHg 68%
    05:00 +6°C° 0 mm 1 mps 663 mmHg 68%
    06:00 +7°C° 0 mm 1 mps 663 mmHg 64%
    07:00 +8°C° 0 mm 1 mps 664 mmHg 60%
    08:00 +9°C° 0 mm 1 mps 664 mmHg 57%
    09:00 +9°C° 0 mm 2 mps 665 mmHg 52%
    10:00 +12°C° 0 mm 2 mps 665 mmHg 48%
    11:00 +13°C° 0 mm 2 mps 665 mmHg 44%
    12:00 +13°C° 0 mm 2 mps 665 mmHg 44%
    13:00 +14°C° 0 mm 2 mps 664 mmHg 43%
    14:00 +14°C° 0 mm 2 mps 664 mmHg 42%
    15:00 +13°C° 0 mm 2 mps 664 mmHg 48%
    16:00 +12°C° 0 mm 2 mps 663 mmHg 53%
    17:00 +10°C° 0 mm 2 mps 663 mmHg 59%
    18:00 +9°C° 0 mm 2 mps 663 mmHg 60%
    19:00 +9°C° 0 mm 2 mps 663 mmHg 61%
    20:00 +9°C° 0 mm 2 mps 663 mmHg 62%
    21:00 +8°C° 0 mm 2 mps 663 mmHg 63%
    22:00 +8°C° 0 mm 2 mps 663 mmHg 64%
    23:00 +8°C° 0 mm 3 mps 663 mmHg 65%
    Show more